Regional Weather Roundup
Issued by NWS

Home | Current Version | Previous Version | Text Only | Print | Product List | Glossary Off
Versions: 1 2 3 4 5 6 7 8 9 10 11 12 13 14 15 16 17 18 19 20 21 22 23 24 25 26 27 28 29 30 31 32 33 34 35 36 37 38 39 40 41 42 43 44 45 46 47 48 49 50

000
ASUS43 KFSD 221602
RWRSD

WEATHER ROUNDUP FOR SOUTH DAKOTA
NATIONAL WEATHER SERVICE SIOUX FALLS SD
1100 AM CDT SUN OCT 22 2017

NOTE: "FAIR" INDICATES FEW OR NO CLOUDS BELOW 12,000 FEET WITH NO
SIGNIFICANT WEATHER AND/OR OBSTRUCTIONS TO VISIBILITY.


SDZ001>005-009-010-012>017-221700-
NORTHWEST AND NORTH CENTRAL SOUTH DAKOTA

CITY           SKY/WX    TMP DP  RH WIND       PRES   REMARKS
BUFFALO          N/A     52  21  29 SW21      29.78F
MOBRIDGE       SUNNY     47  30  51 S9        29.89S
$$

SDZ012>016-024>037-041>051-057-063-072>074-221700-
SOUTHWEST AND SOUTH CENTRAL SOUTH DAKOTA

CITY           SKY/WX    TMP DP  RH WIND       PRES   REMARKS
RAPID CTY ARPT SUNNY     48  22  35 VRB6      29.95R
PIERRE         SUNNY     46  32  58 SW5       29.94F
CUSTER         CLOUDY    43  19  38 W10G21    30.00R
ELLSWORTH AFB  SUNNY     53  18  24 S10       29.93R
PHILIP         SUNNY     50  28  42 W12       29.96F
PINE RIDGE     CLOUDY    48  24  39 SW10      30.02F
SPEARFISH      FAIR      57  23  26 SW20G28   29.91S
WINNER         FAIR      50  29  44 SW15      30.00F
$$

SDZ004>011-016>023-039-040-221700-
NORTHEAST SOUTH DAKOTA

CITY           SKY/WX    TMP DP  RH WIND       PRES   REMARKS
ABERDEEN       SUNNY     49  36  61 S9        29.95F
WATERTOWN      SUNNY     52  35  52 SW15      29.98S
BROOKINGS      SUNNY     51  37  58 S7        30.02F
SISSETON         N/A     56  33  42 SW16      29.94S
$$

SDZ017-020-022-023-036>040-048>070-221700-
SOUTHEAST SOUTH DAKOTA

CITY           SKY/WX    TMP DP  RH WIND       PRES   REMARKS
SIOUX FALLS    MOSUNNY   56  38  50 SW6       30.05S
HURON          SUNNY     55  34  45 S12       29.99F
CHAMBERLAIN    SUNNY     53  31  42 SW13      29.99F
MITCHELL       SUNNY     57  33  40 S9        30.03F
YANKTON        SUNNY     54  34  46 SW9       30.07S
$$

ABBREVIATIONS USED IN REMARKS
   TC - TEMPERATURE IN CELSIUS
  WCI - WIND CHILL INDEX
   HX - HEAT INDEX
  VSB - VISIBILITY





USA.gov is the U.S. government's official web portal to all federal, state and local government web resources and services.